Total_Precipitation_Accumulation
0.01 0.01 0.01 0.02 0.03 0.04 0.08 0.15 0.24 0.25 0.23 0.32 0.50 0.75 0.90 0.87 0.91 1.05 1.17 1.36 1.39 1.44 1.71 2.19 2.83 3.51 4.29 5.42 6.09 6.23 5.98 5.29 4.79 4.38 4.13 3.86 3.61 3.34 2.86 2.48 2.24 2.12 1.98 1.90
0.01 0.02 0.02 0.02 0.03 0.04 0.07 0.13 0.22 0.22 0.18 0.22 0.47 0.85 0.98 0.99 1.04 1.02 1.09 1.17 1.10 1.26 1.60 2.19 2.95 3.77 4.44 4.99 5.35 5.44 5.07 4.32 3.84 3.60 3.53 3.27 3.08 2.77 2.56 2.33 2.29 1.98 1.89 1.89
0.03 0.04 0.02 0.02 0.03 0.05 0.09 0.11 0.18 0.22 0.19 0.22 0.46 1.01 1.24 1.13 1.09 1.07 0.97 0.94 1.04 1.28 1.81 2.55 3.35 4.11 4.45 4.47 4.26 3.96 3.78 3.40 3.28 3.23 3.04 2.83 2.80 2.54 2.38 2.17 2.08 1.78 1.61 1.62
0.02 0.04 0.03 0.03 0.05 0.06 0.10 0.09 0.07 0.10 0.16 0.40 0.55 1.11 1.30 1.28 1.21 1.06 1.04 1.04 1.15 1.43 1.95 2.64 3.17 3.40 3.55 3.49 3.20 3.01 2.94 2.86 2.81 2.73 2.63 2.34 2.21 2.20 2.05 1.95 1.96 1.85 1.63 1.61
0.03 0.04 0.05 0.05 0.05 0.06 0.06 0.06 0.06 0.11 0.23 0.43 0.60 0.95 1.32 1.30 1.37 0.94 0.81 0.90 0.99 1.23 1.52 1.71 1.92 2.08 2.21 2.23 2.38 2.47 2.60 2.72 2.63 2.57 2.55 2.47 2.19 2.15 2.12 2.11 2.21 2.08 1.86 1.66
0.03 0.03 0.04 0.04 0.04 0.05 0.05 0.07 0.14 0.25 0.42 0.80 0.82 0.99 1.34 1.33 1.23 0.83 0.62 0.63 0.79 0.90 0.96 1.06 1.15 1.26 1.49 1.54 1.74 1.95 2.10 2.26 2.43 2.46 2.30 2.21 2.16 2.21 2.25 2.19 2.02 1.83 1.69 1.59
0.10 0.08 0.06 0.07 0.07 0.07 0.06 0.13 0.37 0.73 1.07 1.14 0.72 0.84 1.24 1.18 0.86 0.58 0.49 0.46 0.48 0.66 0.81 0.94 1.04 1.13 1.33 1.28 1.35 1.58 1.66 1.69 1.85 1.90 1.87 1.93 2.07 2.12 2.00 1.89 1.81 1.65 1.41 1.39
0.15 0.15 0.10 0.07 0.09 0.08 0.08 0.12 0.25 0.45 0.56 0.76 0.81 1.30 1.48 0.88 0.60 0.46 0.42 0.40 0.41 0.57 0.71 0.81 0.80 0.88 1.00 0.96 1.08 1.23 1.34 1.41 1.47 1.59 1.71 1.67 1.82 1.83 1.74 1.82 1.69 1.55 1.33 1.23
0.07 0.09 0.08 0.07 0.09 0.10 0.08 0.08 0.11 0.17 0.25 0.57 0.99 1.36 1.31 0.80 0.61 0.45 0.42 0.44 0.46 0.44 0.57 0.64 0.57 0.58 0.71 0.82 0.94 1.05 1.13 1.25 1.28 1.42 1.51 1.48 1.57 1.67 1.72 1.72 1.61 1.43 1.44 1.29
0.05 0.04 0.06 0.06 0.08 0.09 0.09 0.11 0.13 0.15 0.25 0.49 0.89 1.40 1.66 1.22 0.69 0.51 0.50 0.49 0.54 0.46 0.50 0.53 0.53 0.49 0.56 0.71 0.96 1.03 1.04 1.16 1.20 1.30 1.31 1.19 1.36 1.49 1.64 1.58 1.50 1.46 1.49 1.44
0.05 0.04 0.07 0.08 0.08 0.10 0.11 0.11 0.14 0.15 0.18 0.31 0.73 1.06 0.94 0.92 0.67 0.67 0.64 0.57 0.56 0.51 0.54 0.53 0.51 0.51 0.49 0.60 0.81 0.86 1.00 1.11 1.17 1.24 1.34 1.39 1.40 1.33 1.45 1.47 1.44 1.50 1.55 1.53
0.04 0.05 0.06 0.09 0.11 0.12 0.13 0.15 0.15 0.17 0.18 0.21 0.36 0.58 0.59 0.74 0.70 0.71 0.77 0.69 0.63 0.48 0.44 0.47 0.51 0.56 0.54 0.55 0.66 0.79 0.95 1.11 1.17 1.24 1.37 1.45 1.58 1.53 1.47 1.44 1.48 1.53 1.66 1.74
0.04 0.05 0.09 0.18 0.23 0.20 0.14 0.13 0.14 0.15 0.13 0.14 0.34 0.55 0.53 0.61 0.64 0.61 0.74 0.74 0.64 0.59 0.55 0.55 0.60 0.65 0.71 0.70 0.71 0.81 0.96 1.13 1.24 1.32 1.40 1.55 1.63 1.53 1.45 1.55 1.65 1.68 1.83 2.00
0.04 0.04 0.07 0.18 0.27 0.30 0.22 0.15 0.14 0.13 0.14 0.14 0.22 0.47 0.55 0.62 0.61 0.67 0.75 0.77 0.77 0.73 0.66 0.61 0.60 0.64 0.76 0.95 0.95 1.00 1.25 1.25 1.24 1.43 1.60 1.69 1.72 1.64 1.58 1.67 1.79 1.81 1.88 2.05
0.04 0.04 0.05 0.06 0.11 0.17 0.21 0.19 0.15 0.11 0.09 0.13 0.21 0.39 0.50 0.62 0.70 0.74 0.74 0.69 0.68 0.68 0.65 0.59 0.59 0.65 0.75 0.90 1.01 1.13 1.18 1.35 1.39 1.57 1.72 1.77 1.90 1.92 1.93 2.02 2.02 1.94 1.95 1.98
0.07 0.06 0.05 0.05 0.08 0.12 0.15 0.18 0.13 0.10 0.09 0.09 0.20 0.43 0.53 0.59 0.65 0.75 0.72 0.72 0.71 0.68 0.67 0.70 0.74 0.77 0.79 0.84 0.94 1.03 1.10 1.29 1.50 1.76 2.06 2.09 2.13 2.13 2.21 2.37 2.45 2.33 2.29 2.37
0.13 0.11 0.09 0.08 0.11 0.12 0.17 0.17 0.15 0.17 0.16 0.18 0.28 0.44 0.52 0.60 0.68 0.88 0.87 0.81 0.81 0.82 0.83 0.89 1.00 0.97 0.93 0.94 0.97 1.05 1.15 1.32 1.61 1.90 2.15 2.29 2.34 2.37 2.47 2.58 2.59 2.53 2.58 2.73
0.20 0.20 0.17 0.13 0.18 0.24 0.22 0.22 0.22 0.25 0.27 0.32 0.41 0.46 0.60 0.80 0.90 1.07 1.11 0.97 0.94 0.87 0.84 0.91 1.08 1.12 1.08 1.08 1.14 1.25 1.42 1.65 1.93 2.14 2.28 2.39 2.40 2.42 2.48 2.54 2.44 2.45 2.57 2.64
0.22 0.26 0.27 0.24 0.27 0.28 0.31 0.35 0.37 0.42 0.55 0.54 0.64 0.73 0.84 0.94 0.92 1.01 0.94 0.84 0.85 0.85 0.91 0.98 1.10 1.22 1.31 1.35 1.41 1.47 1.61 1.81 2.04 2.20 2.23 2.21 2.30 2.39 2.45 2.46 2.48 2.50 2.51 2.39
0.33 0.33 0.42 0.38 0.41 0.45 0.49 0.52 0.48 0.56 1.03 1.07 1.06 0.99 0.94 0.98 1.18 1.16 0.94 0.86 0.89 0.96 1.01 1.10 1.11 1.17 1.30 1.40 1.41 1.50 1.69 1.90 2.09 2.24 2.26 2.23 2.32 2.42 2.47 2.53 2.57 2.51 2.41 2.32
0.53 0.57 0.54 0.54 0.60 0.58 0.54 0.52 0.53 0.91 1.25 1.19 1.16 1.18 1.10 1.18 1.24 1.21 1.09 1.07 1.02 1.04 1.13 1.12 1.16 1.18 1.23 1.33 1.42 1.53 1.68 1.81 1.95 2.11 2.22 2.35 2.51 2.59 2.62 2.63 2.56 2.47 2.35 2.34
0.66 0.72 0.73 0.73 0.93 1.00 0.71 0.60 0.87 1.18 1.04 1.18 1.30 1.29 1.27 1.22 1.15 1.17 1.18 1.15 1.11 1.07 1.14 1.18 1.21 1.32 1.38 1.44 1.48 1.58 1.59 1.68 1.85 1.90 2.03 2.09 2.23 2.34 2.36 2.44 2.40 2.41 2.34 2.25
0.86 0.86 0.91 1.01 1.16 0.99 0.83 0.87 1.01 1.06 1.13 1.19 1.33 1.40 1.35 1.37 1.28 1.16 1.16 1.12 1.28 1.34 1.32 1.33 1.27 1.32 1.37 1.46 1.56 1.64 1.62 1.59 1.66 1.76 1.89 2.01 2.08 2.26 2.35 2.37 2.31 2.23 2.16 2.05
1.06 0.87 0.98 1.24 1.30 1.16 1.07 1.04 1.00 1.02 1.10 1.16 1.30 1.39 1.47 1.42 1.25 1.15 1.09 1.06 1.05 1.09 1.11 1.22 1.23 1.27 1.42 1.40 1.45 1.56 1.64 1.63 1.68 1.77 1.81 1.90 1.99 2.11 2.31 2.33 2.18 2.03 1.90 1.81
1.19 1.20 1.23 1.44 1.48 1.27 1.16 1.11 1.17 1.17 1.14 1.16 1.24 1.28 1.34 1.28 1.19 1.17 1.12 1.04 1.01 0.97 0.96 1.01 1.06 1.12 1.18 1.20 1.24 1.34 1.46 1.52 1.52 1.51 1.49 1.52 1.68 1.84 1.99 2.02 1.94 1.77 1.66 1.74
1.12 1.36 1.53 1.61 1.43 1.44 1.43 1.33 1.34 1.44 1.42 1.37 1.39 1.47 1.43 1.25 1.16 1.10 1.02 0.95 0.91 0.85 0.81 0.88 0.94 0.97 1.02 1.06 1.15 1.26 1.44 1.59 1.61 1.53 1.43 1.41 1.41 1.48 1.67 1.87 1.93 1.79 1.57 1.60